Printer-friendly version

IAU Minor Planet Center

Minor Planet Center

MPEC 2006-D16 : 2006 DU

The following Minor Planet Electronic Circular may be linked-to from your own Web pages, but must not otherwise be redistributed electronically.


Read MPEC 2006-D15 Read MPEC 2006-D17


M.P.E.C. 2006-D16                                Issued 2006 Feb. 22, 18:19 UT

     The Minor Planet Electronic Circulars contain information on unusual
         minor planets and routine data on comets.  They are published
   on behalf of Commission 20 of the International Astronomical Union by the
          Minor Planet Center, Smithsonian Astrophysical Observatory,
                          Cambridge, MA 02138, U.S.A.

                  Supported in part by the Brinson Foundation
                  Supported in part by the TABASGO Foundation
             Prepared using the Tamkin Foundation Computer Network

                              MPC@CFA.HARVARD.EDU
          URL http://cfa-www.harvard.edu/iau/mpc.html  ISSN 1523-6714

                                    2006 DU

Observations:
     K06D00U tC2006 02 20.23103 10 55 25.72 +06 51 26.0          19.3 V ED016691
     K06D00U tC2006 02 20.24961 10 55 47.73 +06 51 29.9          19.4 V ED016691
     K06D00U tC2006 02 20.26701 10 56 07.61 +06 51 33.1          19.6 V ED016691
     K06D00U* C2006 02 20.26760 10 56 08.73 +06 51 31.7          18.4 V ED016703
     K06D00U  C2006 02 20.28274 10 56 26.62 +06 51 34.4          18.7 V ED016703
     K06D00U  C2006 02 20.29031 10 56 35.52 +06 51 35.7          18.1 V ED016703
     K06D00U  C2006 02 20.30571 10 56 53.59 +06 51 38.1          18.5 V ED016703
     K06D00U  C2006 02 20.30623 10 56 54.27 +06 51 38.0          18.1 V ED016703
     K06D00U  C2006 02 20.30675 10 56 54.88 +06 51 37.8          18.9 V ED016703
     K06D00U  C2006 02 20.30727 10 56 55.50 +06 51 38.4          18.9 V ED016703
     K06D00U  C2006 02 20.43968 10 59 32.53 +06 51 47.6          18.5 V ED016703
     K06D00U  C2006 02 20.45861 10 59 55.39 +06 51 47.9          18.5 V ED016703
     K06D00U  C2006 02 20.46806 11 00 06.84 +06 51 47.6          18.4 V ED016703
     K06D00U  C2006 02 20.91053 11 09 56.29 +06 51 04.6                 ED016J95
     K06D00U  C2006 02 20.91287 11 09 59.22 +06 51 04.4                 ED016J95
     K06D00U  C2006 02 20.91514 11 10 02.15 +06 51 04.3          18.4 R ED016J95
     K06D00U  C2006 02 21.33949 11 19 28.61 +06 51 20.4          18.8 R ED016H36
     K06D00U  C2006 02 21.34204 11 19 31.95 +06 51 20.3          18.5 R ED016H36
     K06D00U  C2006 02 21.34509 11 19 35.94 +06 51 19.6          18.1 R ED016H36
     K06D00U  C2006 02 21.34764 11 19 39.23 +06 51 19.8          18.6 R ED016H36
     K06D00U  C2006 02 21.37432 11 20 17.29 +06 51 39.5          18.6 R ED016854
     K06D00U  C2006 02 21.37485 11 20 17.96 +06 51 38.4          18.6 R ED016854
     K06D00U  C2006 02 21.37537 11 20 18.63 +06 51 38.5          18.6 R ED016854
     K06D00U  C2006 02 21.37640 11 20 19.98 +06 51 38.4          18.7 R ED016854
     K06D00U  C2006 02 21.37796 11 20 22.02 +06 51 38.8          18.5 R ED016854
     K06D00U  C2006 02 21.38056 11 20 25.45 +06 51 38.5          18.5 R ED016854
     K06D00U  C2006 02 21.38093 11 20 25.85 +06 51 37.0          18.2 V ED016G96
     K06D00U  C2006 02 21.38220 11 20 27.49 +06 51 37.6          18.4 V ED016703
     K06D00U  C2006 02 21.38816 11 20 35.26 +06 51 36.5          18.4 V ED016703
     K06D00U  C2006 02 21.38907 11 20 36.54 +06 51 35.8          18.1 V ED016G96
     K06D00U  C2006 02 21.39411 11 20 43.11 +06 51 35.0          18.2 V ED016703
     K06D00U  C2006 02 21.39733 11 20 47.37 +06 51 34.7          18.3 V ED016G96
     K06D00U  C2006 02 21.40007 11 20 50.92 +06 51 35.4          18.1 V ED016703
     K06D00U  C2006 02 21.40553 11 20 58.16 +06 51 33.0                 ED016G96
     K06D00U  C2006 02 21.41686 11 21 13.03 +06 51 31.6          18.1 V ED016703
     K06D00U  C2006 02 21.41773 11 21 14.18 +06 51 31.8          17.9 V ED016703
     K06D00U  C2006 02 21.41860 11 21 15.26 +06 51 31.2          18.1 V ED016703
     K06D00U  C2006 02 21.41949 11 21 16.45 +06 51 30.7          18.4 V ED016703
     K06D00U  C2006 02 22.32124 11 43 07.24 +06 47 46.1          18.7 V ED016703
     K06D00U  C2006 02 22.32176 11 43 07.93 +06 47 46.6          18.6 V ED016703
     K06D00U  C2006 02 22.32229 11 43 08.72 +06 47 44.4          18.0 V ED016703
     K06D00U  C2006 02 22.32281 11 43 09.44 +06 47 46.1          18.2 V ED016703
     K06D00U  C2006 02 22.34499 11 43 37.63 +06 47 16.2          19.6 R ED016H36
     K06D00U  C2006 02 22.34702 11 43 40.55 +06 47 15.1          18.6 R ED016H36
     K06D00U  C2006 02 22.34906 11 43 43.37 +06 47 15.3          19.7 R ED016H36
     K06D00U  C2006 02 22.35109 11 43 46.33 +06 47 14.2          18.3 R ED016H36

Observer details:
691 Steward Observatory, Kitt Peak.  Observers M. Block, H. Liu.  Measurer
    M. Block.  0.9-m f/3 reflector + CCD.
703 Catalina Sky Survey.  Observers R. A. Kowalski, R. Hill.  Measurers
    E. C. Beshore, E. J. Christensen, G. J. Garradd, A. D. Grauer, R. E. Hill,
    R. A. Kowalski, S. M. Larson, R. H. McNaught.  0.68-m Schmidt + CCD.
854 Sabino Canyon Observatory, Tucson.  Observer J. E. McGaha.  0.36-m f/10.0
    Schmidt-Cassegrain + CCD.
G96 Mt. Lemmon Survey.  Observer S. M. Larson.  Measurers E. C. Beshore,
    E. J. Christensen, G. J. Garradd, A. D. Grauer, R. E. Hill, R. A. Kowalski,
    S. M. Larson, R. H. McNaught.  1.5-m reflector + CCD.
H36 Sandlot Observatory, Scranton.  Observer G. Hug.  0.30-m
    Schmidt-Cassegrain + CCD.
J95 Great Shefford.  Observer P. Birtwhistle.  0.40-m f/6.0 Schmidt-Cassegrain
    + CCD.

Orbital elements:
2006 DU                                                  Earth MOID = 0.0246 AU
Epoch 2006 Mar. 6.0 TT = JDT 2453800.5                  MPC
M 358.36297              (2000.0)            P               Q
n   0.35258958     Peri.   21.61398     -0.99295775     -0.11346363
a   1.9843719      Node   151.80504     +0.09535929     -0.93614789
e   0.4927040      Incl.    4.13545     +0.07029592     -0.33279593
P   2.80           H   24.7           G   0.15           U   7
Residuals in seconds of arc
060220 691  0.1+  0.5-    060221 H36  0.5+  0.2-    060221 703  0.3-  1.2+
060220 691  0.5+  0.3-    060221 H36  0.5+  0.0     060221 G96  0.5+  0.3-
060220 691 (9.3-  0.3-)   060221 H36  0.3+  0.3-    060221 703  0.0   0.2+
060220 703  0.2-  0.5-    060221 H36  0.5-  0.3+    060221 703  0.1+  0.5+
060220 703  0.5+  0.3-    060221 854  1.2+  1.1+    060221 703  0.9-  0.1+
060220 703  0.3+  0.2-    060221 854  0.9+  0.1+    060221 703  0.7-  0.2-
060220 703  0.7-  0.0     060221 854  0.7+  0.3+    060222 703  0.1+  0.4-
060220 703  0.3+  0.2-    060221 854  0.8+  0.3+    060222 703  0.6-  0.2+
060220 703  0.3+  0.4-    060221 854  0.7+  0.9+    060222 703  0.0   1.8-
060220 703  0.4+  0.1+    060221 854  1.1+  1.0+    060222 703  0.3-  0.1+
060220 703  0.4-  0.3-    060221 G96  0.1-  0.0     060222 H36  0.2+  0.3-
060220 703  0.2-  0.0     060221 703  0.2-  0.7+    060222 H36  0.6+  0.6-
060220 703  0.4-  0.2-    060221 703  0.8-  0.5+    060222 H36  0.6-  0.4+
060220 J95  0.7+  0.3+    060221 G96  0.3+  0.0     060222 H36  0.4+  0.1+
060220 J95  0.7-  0.0     060221 703  0.1-  0.1-
060220 J95  0.7-  0.2-    060221 G96  0.2+  0.1+

Ephemeris:
2006 DU                  a,e,i = 1.98, 0.49, 4                   q = 1.0067
Date    TT    R. A. (2000) Decl.     Delta      r     Elong.  Phase     V
2006 02 14    09 24.37   +06 16.7    0.0621   1.049   170.8     8.7    19.4
2006 02 16    09 46.35   +06 30.0    0.0549   1.042   173.4     6.2    19.0
2006 02 18    10 14.58   +06 43.2    0.0485   1.037   174.4     5.3    18.6
2006 02 20    10 50.57   +06 52.4    0.0431   1.031   169.7     9.8    18.6
2006 02 22    11 35.12   +06 51.2    0.0391   1.026   161.2    18.1    18.7
2006 02 24    12 26.90   +06 31.5    0.0369   1.022   150.4    28.6    18.8
2006 02 26    13 21.48   +05 50.2    0.0368   1.018   138.8    39.9    19.1
2006 02 28    14 12.90   +04 53.6    0.0387   1.015   127.8    50.5    19.5
2006 03 02    14 56.98   +03 53.3    0.0423   1.012   118.6    59.3    20.0
2006 03 04    15 32.60   +02 58.1    0.0472   1.010   111.5    66.0    20.4
2006 03 06    16 00.69   +02 11.2    0.0530   1.008   106.3    70.8    20.8
2006 03 08    16 22.76   +01 32.7    0.0594   1.007   102.6    74.1    21.2
2006 03 10    16 40.25   +01 01.3    0.0662   1.007   100.1    76.2    21.5
2006 03 12    16 54.30   +00 35.6    0.0732   1.007    98.4    77.5    21.7
2006 03 14    17 05.74   +00 14.4    0.0804   1.007    97.3    78.1    22.0
2006 03 16    17 15.20   -00 03.4    0.0877   1.009    96.8    78.3    22.2

Kyle E. Smalley              (C) Copyright 2006 MPC           M.P.E.C. 2006-D16

Read MPEC 2006-D15 Read MPEC 2006-D17


Our Web policy. Index to the CBAT/MPC/ICQ pages.


Valid HTML 4.01!